This is the latest recevied weather packets stored in our database for station/object IZ6UQU-13. If no packets are shown the sender has not sent any weather packets the latest 10 day(s).
| Time | Temp. | Humidity | Pressure | Rain* | Wind** | Luminosity | Snow |
|---|---|---|---|---|---|---|---|
| 1777107307 | 17.22° C | 47% | 958.4 hPa | 0 mm | - | - | - |
| 1777107007 | 16.67° C | 48% | 958.4 hPa | 0 mm | - | - | - |
| 1777106707 | 16.11° C | 51% | 958.5 hPa | 0 mm | - | - | - |
| 1777106407 | 15.56° C | 54% | 958.5 hPa | 0 mm | - | - | - |
| 1777106107 | 15.56° C | 54% | 958.5 hPa | 0 mm | - | - | - |
| 1777105807 | 15.56° C | 56% | 958.6 hPa | 0 mm | - | - | - |
| 1777105507 | 15° C | 58% | 958.6 hPa | 0 mm | - | - | - |
| 1777105207 | 14.44° C | 58% | 958.6 hPa | 0 mm | - | - | - |
| 1777104907 | 14.44° C | 58% | 958.6 hPa | 0 mm | - | - | - |
| 1777104607 | 14.44° C | 61% | 958.7 hPa | 0 mm | - | - | - |
| 1777104307 | 13.89° C | 60% | 958.7 hPa | 0 mm | - | - | - |
| 1777104007 | 13.33° C | 60% | 958.7 hPa | 0 mm | - | - | - |
| 1777103707 | 13.33° C | 62% | 958.8 hPa | 0 mm | - | - | - |
| 1777103407 | 13.33° C | 63% | 958.8 hPa | 0 mm | - | - | - |
| 1777103107 | 13.33° C | 63% | 958.8 hPa | 0 mm | - | - | - |
| 1777102807 | 13.33° C | 65% | 958.8 hPa | 0 mm | - | - | - |
| 1777102507 | 13.33° C | 63% | 958.7 hPa | 0 mm | - | - | - |
| 1777102207 | 13.33° C | 63% | 958.7 hPa | 0 mm | - | - | - |
| 1777101907 | 13.33° C | 65% | 958.7 hPa | 0 mm | - | - | - |
| 1777101607 | 12.78° C | 62% | 958.7 hPa | 0 mm | - | - | - |
| 1777101307 | 12.22° C | 63% | 958.7 hPa | 0 mm | - | - | - |
| 1777101007 | 12.22° C | 65% | 958.8 hPa | 0 mm | - | - | - |
| 1777100707 | 12.22° C | 64% | 958.8 hPa | 0 mm | - | - | - |
| 1777100407 | 11.67° C | 67% | 958.9 hPa | 0 mm | - | - | - |
| 1777100107 | 10.56° C | 70% | 959 hPa | 0 mm | - | - | - |
* Rain latest hour (hover to see other rain measurements)
** Current wind speed in m/s (hover to see current wind gust speed)